Location: Unspecified
(0.0000°N, 0.0000°E)
Time: 10:25:24
(UTC+00:00)

Explorer 7 - All Passes

Search period start: 23 March 2017 00:00
Search period end: 02 April 2017 00:00
Orbit: 486 x 684 km, 50.3° (Epoch: 21 March)

Date Brightness Start Highest point End Pass type
(mag) Time Alt. Az. Time Alt. Az. Time Alt. Az.
23 Mar - 04:28:28 10° SW 04:32:35 56° NW 04:36:27 10° NNE visible
23 Mar - 14:52:09 10° NNE 14:54:18 13° NE 14:56:30 10° E daylight
23 Mar - 16:30:29 10° WNW 16:34:42 41° SW 16:39:10 10° SSE daylight
24 Mar - 02:55:01 10° S 02:58:00 18° SE 03:00:52 10° E night (unlit)
24 Mar - 04:35:01 10° WSW 04:38:26 24° NW 04:41:41 10° N visible
24 Mar - 14:56:27 10° N 15:00:09 27° NE 15:04:03 10° ESE daylight
24 Mar - 16:37:17 10° W 16:40:38 20° SW 16:44:09 10° S daylight
25 Mar - 02:59:54 10° SSW 03:03:57 38° SE 03:07:46 10° ENE night (unlit)
25 Mar - 04:42:58 10° WNW 04:44:17 11° NW 04:45:35 10° NW visible
25 Mar - 15:01:44 10° NNW 15:05:59 59° NE 15:10:32 10° SE daylight
26 Mar - 03:05:30 10° SW 03:09:52 89° ESE 03:13:55 10° NE night (unlit)
26 Mar - 15:07:35 10° NW 15:11:52 63° SW 15:16:27 10° SSE daylight
27 Mar - 01:33:13 10° SSE 01:35:09 13° SE 01:37:02 10° ESE night (unlit)
27 Mar - 03:11:39 10° WSW 03:15:42 39° NW 03:19:31 10° NNE night (unlit)
27 Mar - 13:34:31 10° N 13:37:22 18° NE 13:40:21 10° E daylight
27 Mar - 15:13:59 10° WNW 15:17:46 29° SW 15:21:47 10° S daylight
28 Mar - 01:37:24 10° S 01:41:09 26° SE 01:44:41 10° ENE night (unlit)
28 Mar - 03:18:33 10° W 03:21:32 18° NW 03:24:23 10° N night (unlit)
28 Mar - 13:39:20 10° NNW 13:43:12 36° NE 13:47:20 10° ESE daylight
28 Mar - 15:21:20 10° W 15:23:45 14° SW 15:26:16 10° SSW daylight
29 Mar - 01:42:39 10° SSW 01:47:04 56° SE 01:51:11 10° NE night (unlit)
29 Mar - 13:44:52 10° NW 13:49:03 83° NE 13:53:33 10° SE daylight
30 Mar - 01:48:30 10° SW 01:52:57 64° NW 01:57:05 10° NNE night (unlit)
30 Mar - 12:13:30 10° NE 12:14:36 11° NE 12:15:42 10° ENE daylight
30 Mar - 13:50:57 10° NW 13:54:56 43° SW 13:59:13 10° SSE daylight
31 Mar - 00:15:08 10° S 00:18:17 18° SE 00:21:19 10° E night (unlit)
31 Mar - 01:54:55 10° WSW 01:58:46 28° NW 02:02:25 10° N night (unlit)
31 Mar - 12:17:10 10° N 12:20:27 23° NE 12:23:54 10° ESE daylight
31 Mar - 13:57:42 10° W 14:00:53 21° SW 14:04:14 10° S daylight
01 Apr - 00:19:58 10° SSW 00:24:14 37° SE 00:28:15 10° ENE night (unlit)
01 Apr - 02:02:20 10° W 02:04:36 14° NW 02:06:50 10° NNW night (unlit)
01 Apr - 12:22:19 10° NNW 12:26:17 51° NE 12:30:30 10° SE daylight
